This is the latest recevied weather packets stored in our database for station/object KG5MMT-15. If no packets are shown the sender has not sent any weather packets the latest 10 day(s).
| Time | Temp. | Humidity | Pressure | Rain* | Wind** | Luminosity | Snow |
|---|---|---|---|---|---|---|---|
| 1788378467 | 27.22° C | 25% | 0 hPa | 0 mm | - | - | - |
| 1788378167 | 27.22° C | 26% | 0 hPa | 0 mm | - | - | - |
| 1788377867 | 27.22° C | 23% | 0 hPa | 0 mm | - | - | - |
| 1788377567 | 27.78° C | 22% | 0 hPa | 0 mm | - | - | - |
| 1788377267 | 27.22° C | 26% | 0 hPa | 0 mm | - | - | - |
| 1788376967 | 26.67° C | 26% | 0 hPa | 0 mm | - | - | - |
| 1788376667 | 26.11° C | 28% | 0 hPa | 0 mm | - | - | - |
| 1788376367 | 25.56° C | 28% | 0 hPa | 0 mm | - | - | - |
| 1788376067 | 26.11° C | 27% | 0 hPa | 0 mm | - | - | - |
| 1788375767 | 25.56° C | 29% | 0 hPa | 0 mm | - | - | - |
| 1788375467 | 25.56° C | 29% | 0 hPa | 0 mm | - | - | - |
| 1788375167 | 26.11° C | 29% | 0 hPa | 0 mm | - | - | - |
| 1788374867 | 26.67° C | 30% | 0 hPa | 0 mm | - | - | - |
| 1788374567 | 26.67° C | 29% | 0 hPa | 0 mm | - | - | - |
| 1788374267 | 26.67° C | 29% | 0 hPa | 0 mm | - | - | - |
| 1788373967 | 26.11° C | 29% | 0 hPa | 0 mm | - | - | - |
| 1788373667 | 25.56° C | 31% | 0 hPa | 0 mm | - | - | - |
| 1788373367 | 25.56° C | 31% | 0 hPa | 0 mm | - | - | - |
| 1788373067 | 25.56° C | 30% | 0 hPa | 0 mm | - | - | - |
| 1788372767 | 25.56° C | 30% | 0 hPa | 0 mm | - | - | - |
| 1788372467 | 25.56° C | 31% | 0 hPa | 0 mm | - | - | - |
| 1788372167 | 25° C | 33% | 0 hPa | 0 mm | - | - | - |
| 1788371867 | 25° C | 32% | 0 hPa | 0 mm | - | - | - |
| 1788371567 | 25° C | 31% | 0 hPa | 0 mm | - | - | - |
| 1788371267 | 26.11° C | 30% | 0 hPa | 0 mm | - | - | - |
* Rain latest hour (hover to see other rain measurements)
** Current wind speed in m/s (hover to see current wind gust speed)